Date String (YYYY-MM-DD hh:mm:ss) UTC,Instrument flags,Ambient pressure (hPa),Sample flow (lpm),Bypass flow (lpm),Sample temperature (°C),Ambient temperature (°C),ASC tube jacket temperature (°C),LED temperature (°C),Box temperature (°C),Sample RH (%),Span deviation,Mass concentration (μg/m³),Mass concentration (μg/m³),Mass concentration (μg/m³)
DateTimeUTC,F1_M11,P_M11,Q1_M11,Q2_M11,T1_M11,T2_M11,T3_M11,T4_M11,T5_M11,U1_M11,ZSPAN_M11,X0_M11,X2_M11,X1_M11
2022-09-26 23:00:00,,0831.5,5.00,0.00,29.7,28.1,00.0,38.3,31.6,16.2,0000.0,0011.57,0004.07,0003.54
2022-09-26 23:01:00,,0831.4,4.99,0.00,29.7,28.4,00.0,38.4,31.7,15.6,0000.0,0012.67,0004.10,0003.55
2022-09-26 23:02:00,,0831.4,5.00,0.00,29.8,28.6,00.0,38.4,31.8,15.6,0000.0,0012.15,0004.12,0003.55
2022-09-26 23:03:00,,0831.4,4.99,0.00,29.8,28.7,00.0,38.4,31.9,15.6,0000.0,0012.36,0004.10,0003.55
2022-09-26 23:04:00,,0831.4,4.99,0.00,29.9,28.7,00.0,38.4,31.9,15.6,0000.0,0012.34,0004.07,0003.55
2022-09-26 23:05:00,,0831.3,5.01,0.00,29.9,27.5,00.0,38.4,31.8,16.0,0000.0,0011.97,0004.05,0003.54
2022-09-26 23:06:00,,0831.3,5.01,0.00,29.8,26.6,00.0,38.4,31.7,16.0,0000.0,0011.62,0004.06,0003.55
2022-09-26 23:07:00,,0831.3,4.99,0.00,29.8,26.6,00.0,38.4,31.6,15.9,0000.0,0012.20,0004.07,0003.56
2022-09-26 23:08:00,,0831.3,4.99,0.00,29.7,26.9,00.0,38.3,31.5,15.7,0000.0,0012.15,0004.06,0003.56
2022-09-26 23:09:00,,0831.3,4.99,0.00,29.7,27.3,00.0,38.3,31.5,15.6,0000.0,0011.71,0004.05,0003.57
2022-09-26 23:10:00,,0831.4,5.00,0.00,29.7,27.6,00.0,38.3,31.5,15.6,0000.0,0011.19,0004.04,0003.57
2022-09-26 23:11:00,,0831.4,5.00,0.00,29.7,27.8,00.0,38.3,31.5,15.5,0000.0,0010.45,0004.02,0003.56
2022-09-26 23:12:00,,0831.4,5.01,0.00,29.7,28.1,00.0,38.4,31.6,15.5,0000.0,0009.04,0004.02,0003.56
2022-09-26 23:13:00,,0831.4,4.99,0.00,29.7,28.3,00.0,38.4,31.7,15.3,0000.0,0008.85,0004.03,0003.56
2022-09-26 23:14:00,,0831.4,5.00,0.00,29.8,28.5,00.0,38.4,31.7,15.3,0000.0,0008.72,0004.08,0003.57
2022-09-26 23:15:00,,0831.4,5.01,0.00,29.8,28.7,00.0,38.4,31.8,15.4,0000.0,0008.64,0004.15,0003.58
2022-09-26 23:16:00,,0831.4,4.99,0.00,29.9,28.8,00.0,38.4,31.9,15.4,0000.0,0008.73,0004.18,0003.58
2022-09-26 23:17:00,,0831.3,4.99,0.00,29.9,28.6,00.0,38.5,31.9,15.4,0000.0,0009.28,0004.18,0003.58
2022-09-26 23:18:00,,0831.3,5.00,0.00,29.9,27.2,00.0,38.5,31.8,15.3,0000.0,0008.96,0004.18,0003.58
2022-09-26 23:19:00,,0831.3,5.00,0.00,29.8,26.4,00.0,38.4,31.7,15.4,0000.0,0009.72,0004.20,0003.58
2022-09-26 23:20:00,,0831.3,5.00,0.00,29.8,26.6,00.0,38.4,31.6,15.7,0000.0,0010.19,0004.22,0003.58
2022-09-26 23:21:00,,0831.4,5.01,0.00,29.7,26.9,00.0,38.4,31.5,15.6,0000.0,0010.23,0004.24,0003.58
2022-09-26 23:22:00,,0831.3,5.00,0.00,29.7,27.3,00.0,38.4,31.4,15.6,0000.0,0010.11,0004.24,0003.57
2022-09-26 23:23:00,,0831.4,5.00,0.00,29.7,27.6,00.0,38.4,31.5,15.7,0000.0,0009.98,0004.23,0003.58
2022-09-26 23:24:00,,0831.3,5.00,0.00,29.7,27.9,00.0,38.4,31.6,15.7,0000.0,0009.90,0004.21,0003.58
2022-09-26 23:25:00,,0831.3,4.99,0.00,29.7,28.2,00.0,38.4,31.7,15.6,0000.0,0009.71,0004.16,0003.57
2022-09-26 23:26:00,,0831.3,5.01,0.00,29.8,28.4,00.0,38.4,31.8,15.7,0000.0,0009.64,0004.10,0003.58
2022-09-26 23:27:00,,0831.3,5.00,0.00,29.8,28.6,00.0,38.4,31.8,15.2,0000.0,0009.58,0004.05,0003.58
2022-09-26 23:28:00,,0831.4,5.00,0.00,29.9,28.7,00.0,38.5,31.9,15.3,0000.0,0009.06,0004.05,0003.57
2022-09-26 23:29:00,,0831.4,4.99,0.00,29.9,28.7,00.0,38.5,31.9,15.4,0000.0,0009.40,0004.05,0003.57
2022-09-26 23:30:00,,0831.4,5.00,0.00,29.9,27.6,00.0,38.5,31.8,15.0,0000.0,0009.28,0004.03,0003.57
2022-09-26 23:31:00,,0831.5,5.01,0.00,29.8,26.5,00.0,38.4,31.7,14.9,0000.0,0009.12,0004.05,0003.58
2022-09-26 23:32:00,,0831.4,4.99,0.00,29.8,26.6,00.0,38.4,31.6,15.1,0000.0,0009.39,0004.04,0003.58
2022-09-26 23:33:00,,0831.5,4.99,0.00,29.7,26.8,00.0,38.4,31.5,15.6,0000.0,0009.70,0004.02,0003.58
2022-09-26 23:34:00,,0831.4,4.99,0.00,29.7,27.1,00.0,38.4,31.4,15.8,0000.0,0009.92,0004.03,0003.58
2022-09-26 23:35:00,,0831.4,5.00,0.00,29.7,27.5,00.0,38.4,31.5,15.8,0000.0,0010.00,0004.03,0003.58
2022-09-26 23:36:00,,0831.4,5.00,0.00,29.7,27.8,00.0,38.4,31.6,15.3,0000.0,0010.12,0004.02,0003.58
2022-09-26 23:37:00,,0831.5,4.99,0.00,29.7,28.1,00.0,38.4,31.7,15.5,0000.0,0010.36,0004.05,0003.58
2022-09-26 23:38:00,,0831.4,5.01,0.00,29.8,28.3,00.0,38.4,31.7,15.4,0000.0,0010.63,0004.09,0003.58
2022-09-26 23:39:00,,0831.4,4.97,0.00,29.8,28.5,00.0,38.4,31.8,15.2,0000.0,0010.99,0004.09,0003.58
2022-09-26 23:40:00,,0831.4,5.00,0.00,29.8,28.7,00.0,38.4,31.9,15.4,0000.0,0010.88,0004.08,0003.58
2022-09-26 23:41:00,,0831.4,5.01,0.00,29.9,28.8,00.0,38.5,31.9,15.9,0000.0,0010.24,0004.10,0003.58
2022-09-26 23:42:00,,0831.4,4.99,0.00,29.9,28.7,00.0,38.5,31.9,15.8,0000.0,0010.79,0004.10,0003.57
2022-09-26 23:43:00,,0831.4,5.01,0.00,29.9,27.4,00.0,38.5,31.8,15.7,0000.0,0010.81,0004.11,0003.57
2022-09-26 23:44:00,,0831.3,5.01,0.00,29.8,26.5,00.0,38.4,31.7,15.9,0000.0,0010.41,0004.14,0003.57
2022-09-26 23:45:00,,0831.4,4.99,0.00,29.8,26.6,00.0,38.4,31.6,15.8,0000.0,0010.41,0004.17,0003.57
2022-09-26 23:46:00,,0831.4,5.00,0.00,29.7,26.9,00.0,38.4,31.5,16.3,0000.0,0010.59,0004.16,0003.57
2022-09-26 23:47:00,,0831.4,5.00,0.00,29.7,27.3,00.0,38.4,31.5,16.0,0000.0,0010.62,0004.16,0003.56
2022-09-26 23:48:00,,0831.4,4.99,0.00,29.7,27.6,00.0,38.4,31.6,16.4,0000.0,0010.96,0004.14,0003.55
2022-09-26 23:49:00,,0831.4,5.01,0.00,29.7,27.9,00.0,38.4,31.6,16.2,0000.0,0011.33,0004.13,0003.54
2022-09-26 23:50:00,,0831.4,4.99,0.00,29.7,28.1,00.0,38.4,31.7,15.9,0000.0,0011.81,0004.13,0003.54
2022-09-26 23:51:00,,0831.4,5.01,0.00,29.8,28.3,00.0,38.4,31.7,15.8,0000.0,0011.67,0004.14,0003.53
2022-09-26 23:52:00,,0831.5,5.00,0.00,29.8,28.5,00.0,38.4,31.8,15.7,0000.0,0011.67,0004.12,0003.53
2022-09-26 23:53:00,,0831.4,4.99,0.00,29.8,28.7,00.0,38.5,31.9,15.6,0000.0,0011.39,0004.11,0003.53
2022-09-26 23:54:00,,0831.4,5.00,0.00,29.9,28.9,00.0,38.5,31.9,15.7,0000.0,0011.11,0004.09,0003.53
2022-09-26 23:55:00,,0831.5,5.02,0.00,29.9,28.9,00.0,38.5,32.0,15.8,0000.0,0011.89,0004.08,0003.52
2022-09-26 23:56:00,,0831.5,5.00,0.00,29.9,27.9,00.0,38.5,31.9,15.8,0000.0,0012.12,0004.05,0003.52
2022-09-26 23:57:00,,0831.4,5.00,0.00,29.9,26.6,00.0,38.5,31.7,15.6,0000.0,0012.07,0004.06,0003.53
2022-09-26 23:58:00,,0831.5,5.01,0.00,29.8,26.5,00.0,38.4,31.7,15.8,0000.0,0012.66,0004.05,0003.53
2022-09-26 23:59:00,,0831.5,5.00,0.00,29.8,26.8,00.0,38.4,31.5,16.2,0000.0,0012.23,0004.04,0003.54
